Location: Val-d'Or
(48.1170°N, 77.7670°W)
Time: 07:22:00
(UTC-05:00)

OTV 5 (USA 277) - Visible Passes

Search period start: 23 January 2019 00:00
Search period end: 02 February 2019 00:00
Orbit: 339 x 349 km, 54.5° (Epoch: 15 January)

Date Brightness Start Highest point End Pass type
(mag) Time Alt. Az. Time Alt. Az. Time Alt. Az.
26 Jan ? 06:26:05 10° SSW 06:28:31 24° SE 06:30:58 10° E visible
27 Jan ? 06:49:08 10° SW 06:52:01 67° SSE 06:54:56 10° ENE visible
28 Jan ? 05:40:01 20° SSE 05:40:58 23° SE 05:43:23 10° E visible
29 Jan ? 06:03:27 35° SW 06:04:28 64° SE 06:07:22 10° ENE visible
30 Jan ? 04:55:14 13° E 04:55:14 13° E 04:55:47 10° E visible
30 Jan ? 06:26:41 25° W 06:28:08 52° NNW 06:31:01 10° NE visible
31 Jan ? 05:18:20 26° ENE 05:18:20 26° ENE 05:19:47 10° ENE visible
31 Jan ? 06:49:47 13° WNW 06:51:58 29° NNW 06:54:37 10° NE visible
01 Feb ? 05:41:19 39° NNE 05:41:19 39° NNE 05:43:27 10° NE visible
